This is the latest recevied weather packets stored in our database for station/object SR2ATJ-13. If no packets are shown the sender has not sent any weather packets the latest 10 day(s).
| Time | Temp. | Humidity | Pressure | Rain* | Wind** | Luminosity | Snow |
|---|---|---|---|---|---|---|---|
| 1777118704 | 14.44° C | 45% | 1008.3 hPa | - | - | - | - |
| 1777118104 | 14.44° C | 46% | 1008.3 hPa | - | - | - | - |
| 1777116903 | 13.89° C | 47% | 1008.3 hPa | - | - | - | - |
| 1777115703 | 13.89° C | 48% | 1008.5 hPa | - | - | - | - |
| 1777115103 | 13.89° C | 49% | 1008.4 hPa | - | - | - | - |
| 1777114503 | 13.89° C | 50% | 1008.5 hPa | - | - | - | - |
| 1777113903 | 13.89° C | 51% | 1008.5 hPa | - | - | - | - |
| 1777113303 | 13.33° C | 53% | 1008.5 hPa | - | - | - | - |
| 1777112704 | 13.33° C | 53% | 1008.7 hPa | - | - | - | - |
| 1777112103 | 12.78° C | 55% | 1008.7 hPa | - | - | - | - |
| 1777111503 | 12.22° C | 57% | 1008.9 hPa | - | - | - | - |
| 1777110903 | 12.78° C | 58% | 1009 hPa | - | - | - | - |
| 1777110303 | 12.78° C | 60% | 1009.1 hPa | - | - | - | - |
| 1777109703 | 11.67° C | 62% | 1009.1 hPa | - | - | - | - |
| 1777109104 | 11.67° C | 65% | 1009.2 hPa | - | - | - | - |
| 1777108503 | 11.11° C | 68% | 1009.3 hPa | - | - | - | - |
| 1777107904 | 10.56° C | 71% | 1009.5 hPa | - | - | - | - |
| 1777107303 | 10° C | 72% | 1009.4 hPa | - | - | - | - |
| 1777106702 | 10° C | 76% | 1009.5 hPa | - | - | - | - |
| 1777106102 | 8.89° C | 80% | 1009.8 hPa | - | - | - | - |
| 1777105503 | 8.89° C | 81% | 1009.9 hPa | - | - | - | - |
| 1777104902 | 8.33° C | 81% | 1010 hPa | - | - | - | - |
| 1777104303 | 8.33° C | 83% | 1010.1 hPa | - | - | - | - |
| 1777103703 | 8.33° C | 84% | 1010.1 hPa | - | - | - | - |
| 1777103103 | 7.78° C | 85% | 1010.2 hPa | - | - | - | - |
* Rain since midnight (hover to see other rain measurements)
** Current wind speed in m/s (hover to see current wind gust speed)